Voltar ao catálogo

FENGYUN 1C DEB

AtivoPO
NORAD 31535·DEBRIS·🇨🇳 China

Lançado May 10, 1999 de Taiyuan Satellite Launch Center

Loading…

Próximas Passagens (próximas 24 horas)

TLE

EnvelhecendoSource: Space-Track

Época: Sep 9, 2026, 18:36 UTC

1 31535U 99025BYA 26252.77564802  .00000886  00000-0  34949-3 0  9992
2 31535  98.0205  86.2713 0088474  76.0774 285.0231 14.29114816758011

Acompanhe FENGYUN 1C DEB em tempo real com AllMySat

Download on the App Store